7 * 24
多渠道服务支持
YAOGAN-43 02C 是中国研制的一颗遥感卫星,属于“遥感四十三号”系列。该卫星主要用于科学实验、国土资源普查、环境监测及灾害预警等领域,具备高分辨率和多光谱成像能力。它由中国航天科技集团公司研制,并通过长征系列运载火箭发射升空。该卫星的发射进一步提升了中国在遥感观测和空间科学应用方面的能力,为国家的经济发展和国家安全提供了重要支持。
中国
(CN)
| 数据来源 | 国际轨道数据 |
| 星历时间: | 2025-12-15T07:30:47+0800 19小时前 查看轨道信息 |
| 半长轴: | 6874.817km |
| 偏心率: | 0.0003188 |
| 轨道倾角: | 34.998° |
| 近地点辐角 | 159.043° |
| 升交点赤经 | 276.629° |
| 平近点角 | 201.042° |
| 近地点: | 494.49km |
| 远地点: | 498.874km |
| 周期: | 94.548分钟 |
| 每日圈数: | 15.230392 |